• In Deutschland
  • Länderverzeichnis
  • Für 7 Tage
  • Wassertemperatur
  • Satellitenkarten
  • Wetterkarte
  • Widgets
  • user-avatar
    Anmelden

    Stündliche Wetter Saurimo

    Heute, 21 Juli, Freitag

    Zeit Temperatur Niederschläge Wind Luftdruck Luftfeuchtigkeit
    00:00 +20°C° 0 mm 2 m/S 671 mmHg 31%
    01:00 +19°C° 0 mm 2 m/S 671 mmHg 35%
    02:00 +18°C° 0 mm 2 m/S 671 mmHg 36%
    03:00 +18°C° 0 mm 2 m/S 671 mmHg 37%
    04:00 +17°C° 0 mm 2 m/S 670 mmHg 38%
    05:00 +18°C° 0 mm 2 m/S 671 mmHg 37%
    06:00 +18°C° 0 mm 2 m/S 671 mmHg 36%
    07:00 +19°C° 0 mm 3 m/S 672 mmHg 35%
    08:00 +22°C° 0 mm 3 m/S 672 mmHg 30%
    09:00 +27°C° 0 mm 3 m/S 673 mmHg 24%
    10:00 +31°C° 0 mm 3 m/S 674 mmHg 19%
    11:00 +34°C° 0 mm 2 m/S 673 mmHg 16%
    12:00 +36°C° 0 mm 2 m/S 673 mmHg 14%
    13:00 +36°C° 0 mm 1 m/S 673 mmHg 11%
    14:00 +36°C° 0 mm 1 m/S 672 mmHg 11%
    15:00 +35°C° 0 mm 1 m/S 672 mmHg 11%
    16:00 +34°C° 0 mm 1 m/S 671 mmHg 11%
    17:00 +31°C° 0 mm 1 m/S 671 mmHg 14%
    18:00 +28°C° 0 mm 1 m/S 670 mmHg 17%
    19:00 +26°C° 0 mm 1 m/S 670 mmHg 20%
    20:00 +25°C° 0 mm 1 m/S 670 mmHg 21%
    21:00 +24°C° 0 mm 1 m/S 671 mmHg 23%
    22:00 +22°C° 0 mm 1 m/S 671 mmHg 24%
    23:00 +22°C° 0 mm 1 m/S 671 mmHg 26%

    Morgen, 22 Juli, Samstag

    Zeit Temperatur Niederschläge Wind Luftdruck Luftfeuchtigkeit
    00:00 +21°C° 0 mm 1 m/S 670 mmHg 27%
    01:00 +20°C° 0 mm 1 m/S 670 mmHg 29%
    02:00 +19°C° 0 mm 2 m/S 670 mmHg 30%
    03:00 +18°C° 0 mm 2 m/S 670 mmHg 32%
    04:00 +18°C° 0 mm 2 m/S 670 mmHg 34%
    05:00 +19°C° 0 mm 2 m/S 670 mmHg 33%
    06:00 +19°C° 0 mm 2 m/S 671 mmHg 33%
    07:00 +20°C° 0 mm 3 m/S 671 mmHg 32%
    08:00 +25°C° 0 mm 3 m/S 672 mmHg 26%
    09:00 +29°C° 0 mm 3 m/S 673 mmHg 20%
    10:00 +34°C° 0 mm 3 m/S 674 mmHg 15%
    11:00 +37°C° 0 mm 2 m/S 674 mmHg 13%
    12:00 +39°C° 0 mm 1 m/S 673 mmHg 11%
    13:00 +41°C° 0 mm 1 m/S 673 mmHg 9%
    14:00 +40°C° 0 mm 1 m/S 672 mmHg 9%
    15:00 +39°C° 0 mm 1 m/S 672 mmHg 9%
    16:00 +35°C° 0 mm 0 m/S 671 mmHg 10%
    17:00 +33°C° 0 mm 1 m/S 671 mmHg 12%
    18:00 +30°C° 0 mm 1 m/S 670 mmHg 14%
    19:00 +27°C° 0 mm 1 m/S 670 mmHg 17%
    20:00 +26°C° 0 mm 1 m/S 670 mmHg 18%
    21:00 +25°C° 0 mm 1 m/S 671 mmHg 20%
    22:00 +24°C° 0 mm 1 m/S 671 mmHg 21%
    23:00 +23°C° 0 mm 1 m/S 671 mmHg 22%

    übermorgen, 23 Juli, Sonntag

    Zeit Temperatur Niederschläge Wind Luftdruck Luftfeuchtigkeit
    00:00 +22°C° 0 mm 1 m/S 670 mmHg 24%
    01:00 +21°C° 0 mm 1 m/S 670 mmHg 25%
    02:00 +21°C° 0 mm 1 m/S 670 mmHg 26%
    03:00 +20°C° 0 mm 1 m/S 670 mmHg 27%
    04:00 +20°C° 0 mm 1 m/S 669 mmHg 27%
    05:00 +20°C° 0 mm 1 m/S 670 mmHg 27%
    06:00 +19°C° 0 mm 2 m/S 671 mmHg 26%
    07:00 +20°C° 0 mm 2 m/S 671 mmHg 26%
    08:00 +25°C° 0 mm 2 m/S 672 mmHg 22%
    09:00 +28°C° 0 mm 2 m/S 673 mmHg 18%
    10:00 +32°C° 0 mm 2 m/S 674 mmHg 14%
    11:00 +35°C° 0 mm 2 m/S 673 mmHg 13%
    12:00 +37°C° 0 mm 2 m/S 673 mmHg 11%
    13:00 +38°C° 0 mm 2 m/S 672 mmHg 10%
    14:00 +37°C° 0 mm 1 m/S 672 mmHg 10%
    15:00 +36°C° 0 mm 1 m/S 671 mmHg 10%
    16:00 +36°C° 0 mm 1 m/S 671 mmHg 10%
    17:00 +33°C° 0 mm 1 m/S 670 mmHg 13%
    18:00 +28°C° 0 mm 0 m/S 670 mmHg 15%
    19:00 +24°C° 0 mm 0 m/S 670 mmHg 18%
    20:00 +24°C° 0 mm 0 m/S 671 mmHg 19%
    21:00 +23°C° 0 mm 0 m/S 671 mmHg 20%
    22:00 +24°C° 0 mm 1 m/S 671 mmHg 20%
    23:00 +23°C° 0 mm 1 m/S 671 mmHg 21%

    24 Juli, Montag

    Zeit Temperatur Niederschläge Wind Luftdruck Luftfeuchtigkeit
    00:00 +23°C° 0 mm 1 m/S 670 mmHg 22%
    01:00 +22°C° 0 mm 1 m/S 670 mmHg 23%
    02:00 +21°C° 0 mm 1 m/S 670 mmHg 24%
    03:00 +20°C° 0 mm 2 m/S 670 mmHg 25%
    04:00 +19°C° 0 mm 2 m/S 669 mmHg 26%
    05:00 +19°C° 0 mm 2 m/S 670 mmHg 26%
    06:00 +20°C° 0 mm 2 m/S 671 mmHg 26%
    07:00 +20°C° 0 mm 2 m/S 672 mmHg 25%
    08:00 +25°C° 0 mm 3 m/S 672 mmHg 21%
    09:00 +29°C° 0 mm 3 m/S 673 mmHg 17%
    10:00 +34°C° 0 mm 4 m/S 674 mmHg 13%
    11:00 +35°C° 0 mm 3 m/S 673 mmHg 12%
    12:00 +37°C° 0 mm 3 m/S 673 mmHg 11%
    13:00 +39°C° 0 mm 2 m/S 672 mmHg 9%
    14:00 +38°C° 0 mm 2 m/S 671 mmHg 9%
    15:00 +38°C° 0 mm 2 m/S 671 mmHg 9%
    16:00 +36°C° 0 mm 1 m/S 670 mmHg 9%
    17:00 +33°C° 0 mm 1 m/S 670 mmHg 12%
    18:00 +30°C° 0 mm 1 m/S 670 mmHg 14%
    19:00 +28°C° 0 mm 1 m/S 670 mmHg 16%
    20:00 +27°C° 0 mm 1 m/S 670 mmHg 18%
    21:00 +26°C° 0 mm 2 m/S 671 mmHg 19%
    22:00 +25°C° 0 mm 2 m/S 671 mmHg 20%
    23:00 +24°C° 0 mm 2 m/S 670 mmHg 21%

    25 Juli, Dienstag

    Zeit Temperatur Niederschläge Wind Luftdruck Luftfeuchtigkeit
    00:00 +23°C° 0 mm 2 m/S 670 mmHg 21%
    01:00 +23°C° 0 mm 2 m/S 670 mmHg 22%
    02:00 +21°C° 0 mm 2 m/S 670 mmHg 23%
    03:00 +21°C° 0 mm 2 m/S 670 mmHg 23%
    04:00 +20°C° 0 mm 2 m/S 670 mmHg 24%
    05:00 +20°C° 0 mm 2 m/S 670 mmHg 24%
    06:00 +21°C° 0 mm 2 m/S 671 mmHg 24%
    07:00 +21°C° 0 mm 2 m/S 672 mmHg 23%
    08:00 +25°C° 0 mm 2 m/S 672 mmHg 20%
    09:00 +29°C° 0 mm 2 m/S 673 mmHg 17%
    10:00 +33°C° 0 mm 3 m/S 673 mmHg 13%
    11:00 +35°C° 0 mm 3 m/S 673 mmHg 12%
    12:00 +36°C° 0 mm 2 m/S 672 mmHg 11%
    13:00 +38°C° 0 mm 2 m/S 671 mmHg 10%
    14:00 +38°C° 0 mm 2 m/S 671 mmHg 10%
    15:00 +37°C° 0 mm 2 m/S 670 mmHg 10%
    16:00 +37°C° 0 mm 2 m/S 670 mmHg 10%
    17:00 +34°C° 0 mm 2 m/S 670 mmHg 13%
    18:00 +30°C° 0 mm 2 m/S 670 mmHg 15%
    19:00 +27°C° 0 mm 1 m/S 670 mmHg 17%
    20:00 +26°C° 0 mm 1 m/S 670 mmHg 18%
    21:00 +25°C° 0 mm 2 m/S 670 mmHg 20%
    22:00 +24°C° 0 mm 2 m/S 670 mmHg 21%
    23:00 +24°C° 0 mm 2 m/S 670 mmHg 21%

    26 Juli, Mittwoch

    Zeit Temperatur Niederschläge Wind Luftdruck Luftfeuchtigkeit
    00:00 +23°C° 0 mm 2 m/S 670 mmHg 22%
    01:00 +21°C° 0 mm 2 m/S 669 mmHg 22%
    02:00 +21°C° 0 mm 2 m/S 669 mmHg 23%
    03:00 +20°C° 0 mm 2 m/S 669 mmHg 23%
    04:00 +20°C° 0 mm 2 m/S 669 mmHg 23%
    05:00 +21°C° 0 mm 3 m/S 670 mmHg 23%
    06:00 +21°C° 0 mm 3 m/S 671 mmHg 22%
    07:00 +21°C° 0 mm 3 m/S 671 mmHg 22%
    08:00 +26°C° 0 mm 3 m/S 672 mmHg 19%
    09:00 +29°C° 0 mm 4 m/S 673 mmHg 17%
    10:00 +34°C° 0 mm 4 m/S 673 mmHg 14%
    11:00 +35°C° 0 mm 4 m/S 673 mmHg 13%
    12:00 +36°C° 0 mm 3 m/S 672 mmHg 13%
    13:00 +37°C° 0 mm 3 m/S 671 mmHg 12%
    14:00 +37°C° 0 mm 3 m/S 671 mmHg 12%
    15:00 +37°C° 0 mm 2 m/S 671 mmHg 13%
    16:00 +37°C° 0 mm 2 m/S 670 mmHg 13%
    17:00 +34°C° 0 mm 2 m/S 670 mmHg 16%
    18:00 +31°C° 0 mm 2 m/S 670 mmHg 19%
    19:00 +28°C° 0 mm 1 m/S 671 mmHg 22%
    20:00 +27°C° 0 mm 1 m/S 671 mmHg 24%
    21:00 +26°C° 0 mm 1 m/S 671 mmHg 26%
    22:00 +25°C° 0 mm 1 m/S 671 mmHg 28%
    23:00 +24°C° 0 mm 1 m/S 671 mmHg 28%
    Mehr zeigen